Willow Slough Lake Weather Center

Moon Phase Calendar



Willow Slough Lake Water Level
Online Cameras

 


      

Current Conditions in Morocco
12/2/2020 7:02:18 PM

31°F
Feels Like 24
Clear
Humidity
84%
Pressure
30.3"
Wind
4.7 mph (SW)
Dew Point
27°F
UV Index
0/10 (Low)
Visibility
6 mi

Hourly Forecast

Date & Time Wed, Dec 2
7:00 PM
Wed, Dec 2
8:00 PM
Wed, Dec 2
9:00 PM
Wed, Dec 2
10:00 PM
Wed, Dec 2
11:00 PM
Thu, Dec 3
12:00 AM
Thu, Dec 3
1:00 AM
Thu, Dec 3
2:00 AM
Thu, Dec 3
3:00 AM
Thu, Dec 3
4:00 AM
Thu, Dec 3
5:00 AM
Thu, Dec 3
6:00 AM
Thu, Dec 3
7:00 AM
Thu, Dec 3
8:00 AM
Thu, Dec 3
9:00 AM
Thu, Dec 3
10:00 AM
Thu, Dec 3
11:00 AM
Thu, Dec 3
12:00 PM
Thu, Dec 3
1:00 PM
Thu, Dec 3
2:00 PM
Thu, Dec 3
3:00 PM
Thu, Dec 3
4:00 PM
Thu, Dec 3
5:00 PM
Thu, Dec 3
6:00 PM
Thu, Dec 3
7:00 PM
Thu, Dec 3
8:00 PM
Thu, Dec 3
9:00 PM
Thu, Dec 3
10:00 PM
Thu, Dec 3
11:00 PM
Fri, Dec 4
12:00 AM
Fri, Dec 4
1:00 AM
Fri, Dec 4
2:00 AM
Fri, Dec 4
3:00 AM
Fri, Dec 4
4:00 AM
Fri, Dec 4
5:00 AM
Fri, Dec 4
6:00 AM
Fri, Dec 4
7:00 AM
Fri, Dec 4
8:00 AM
Fri, Dec 4
9:00 AM
Fri, Dec 4
10:00 AM
Fri, Dec 4
11:00 AM
Fri, Dec 4
12:00 PM
Fri, Dec 4
1:00 PM
Fri, Dec 4
2:00 PM
Fri, Dec 4
3:00 PM
Fri, Dec 4
4:00 PM
Fri, Dec 4
5:00 PM
Fri, Dec 4
6:00 PM
Condition
Clear

Clouds

Clouds

Clouds

Clouds

Clouds

Clear

Clear

Clouds

Clouds

Clouds

Clouds

Clouds

Clouds

Clouds

Clouds

Clouds

Clouds

Clear

Clear

Clear

Clear

Clear

Clear

Clear

Clear

Clear

Clear

Clear

Clear

Clear

Clear

Clear

Clear

Clouds

Clouds

Clouds

Clouds

Clouds

Clouds

Clouds

Clouds

Clear

Clear

Clear

Clear

Clear

Clear
Temperature 31°F31°F31°F31°F30°F30°F29°F29°F29°F29°F29°F29°F29°F31°F34°F36°F39°F41°F42°F43°F42°F39°F36°F36°F35°F35°F35°F35°F35°F35°F35°F35°F35°F35°F35°F34°F34°F34°F37°F39°F41°F43°F44°F44°F43°F41°F38°F37°F
Feels Like 22°F23°F23°F22°F21°F21°F21°F20°F20°F20°F20°F20°F20°F21°F24°F26°F28°F30°F31°F33°F32°F30°F28°F27°F26°F26°F25°F25°F24°F24°F25°F25°F24°F24°F24°F24°F24°F24°F26°F28°F31°F33°F35°F35°F35°F34°F32°F30°F
Cloudiness 1%31%56%66%66%55%4%4%17%20%16%20%46%51%37%28%23%20%0%0%0%0%0%0%0%0%0%0%0%0%0%1%4%8%18%31%59%33%21%22%18%16%0%0%0%0%0%0%
Visibility 6 mi6 mi6 mi6 mi6 mi6 mi6 mi6 mi6 mi6 mi6 mi6 mi6 mi6 mi6 mi6 mi6 mi6 mi6 mi6 mi6 mi6 mi6 mi6 mi6 mi6 mi6 mi6 mi6 mi6 mi6 mi6 mi6 mi6 mi6 mi6 mi6 mi6 mi6 mi6 mi6 mi6 mi6 mi6 mi6 mi6 mi6 mi6 mi
Precipitation 0%0%0%0%0%0%0%0%0%0%0%0%0%0%0%0%0%0%0%0%0%0%0%0%0%0%0%0%0%0%0%0%0%0%0%0%0%0%0%0%0%0%0%0%0%0%0%0%
Humidity 84%84%84%84%85%85%85%85%85%85%85%85%85%84%77%70%65%61%58%57%61%69%77%81%83%85%86%87%88%90%91%92%93%94%93%91%93%90%81%73%67%62%59%59%61%67%74%78%
Dew Point 27°F27°F27°F27°F27°F16°F16°F15°F15°F15°F15°F15°F15°F15°F16°F16°F18°F19°F20°F21°F23°F24°F24°F25°F27°F28°F29°F30°F32°F33°F33°F33°F33°F33°F33°F32°F31°F31°F30°F30°F29°F28°F27°F27°F27°F28°F28°F28°F
Pressure 30.3"30.33"30.36"30.33"30.33"30.3"30.3"30.3"30.27"30.27"30.27"30.27"30.27"30.24"30.24"30.24"30.21"30.18"30.18"30.15"30.12"30.12"30.09"30.12"30.12"30.09"30.09"30.09"30.06"30.06"30.06"30.06"30.03"30"30"30"30"30"30"30"30"29.97"29.97"29.94"29.94"29.97"29.97"30"
Wind Speed 6.9 mph7.1 mph7.2 mph7.3 mph8.5 mph7.3 mph7.7 mph7.1 mph8.1 mph7.1 mph6.9 mph7.7 mph7.8 mph9.6 mph9.3 mph10.4 mph11.6 mph12.9 mph13.4 mph10.8 mph10.9 mph8.9 mph7.3 mph8.6 mph9.5 mph9.9 mph11 mph11.5 mph12.4 mph13.4 mph11.6 mph12.2 mph12.8 mph12.1 mph12.9 mph12.1 mph10.1 mph12 mph13.1 mph12.9 mph12 mph11 mph9.9 mph8.9 mph7.4 mph5.3 mph5.4 mph5.6 mph
Wind
Direction
244°
WSW
249°
WSW
253°
WSW
251°
WSW
238°
WSW
239°
WSW
245°
WSW
253°
WSW
247°
WSW
251°
WSW
252°
WSW
228°
SW
235°
SW
227°
SW
261°
W
231°
SW
236°
SW
232°
SW
234°
SW
248°
WSW
236°
SW
234°
SW
244°
WSW
231°
SW
226°
SW
229°
SW
227°
SW
226°
SW
224°
SW
232°
SW
241°
WSW
235°
SW
233°
SW
236°
SW
236°
SW
239°
WSW
244°
WSW
235°
SW
248°
WSW
249°
WSW
252°
WSW
262°
W
275°
W
286°
WNW
294°
WNW
307°
NW
330°
NNW
345°
NNW

Daily Forecast

Date High Low Precip. Humidity
Today
Dec 2

Clouds
41 °F
28 °F
0%
67%
Thursday
Dec 3

Clouds
43 °F
29 °F
0%
65%
Friday
Dec 4

Clouds
43 °F
34 °F
0%
67%
Saturday
Dec 5

Clouds
42 °F
32 °F
0%
68%
Sunday
Dec 6

Clouds
41 °F
31 °F
0%
70%
Monday
Dec 7

Snow
39 °F
31 °F
20%
70%
Tuesday
Dec 8

Clouds
43 °F
31 °F
0%
62%
Wednesday
Dec 9

Clouds
43 °F
34 °F
0%
66%
Thursday
Dec 10

Clear
44 °F
31 °F
0%
63%
Friday
Dec 11

Rain
55 °F
36 °F
100%
67%
Saturday
Dec 12

Rain
56 °F
31 °F
77%
69%
Sunday
Dec 13

Clear
33 °F
26 °F
0%
82%
Monday
Dec 14

Rain
38 °F
27 °F
100%
73%
Tuesday
Dec 15

Snow
48 °F
33 °F
100%
79%
Wednesday
Dec 16

Clouds
33 °F
24 °F
11%
82%
Thursday
Dec 17

Clouds
30 °F
24 °F
0%
84%


Temperature 8-14 Day Outlook



Precipitation 8-14 Day Outlook




Quick Links
Willow Slough Lake News
Willow Slough Lake Photos
Willow Slough Lake Videos




About Us
Contact Us
Site Map
Search Site
Advertise With Us
   
WillowSlough.USLakes.info
THE WILLOW SLOUGH LAKE WEBSITE

Copyright 2020, Lakes Online
Privacy    |    Legal